Storm Lake, IA

7:43 AM CDT on July 20, 2017 (GMT -0500)
Storm Lake Municipal

Weather History for KSLB - December, 2013

Change the Weather History Date:

Monday, December 9, 2013

  Actual Average Record
Temperature  
Mean Temperature 2 °F -  
Max Temperature 12 °F 35 °F 55 °F (2006)
Min Temperature -7 °F 20 °F -7 °F (2013)
Degree Days  
Heating Degree Days 62    
Moisture  
Dew Point -7 °F    
Average Humidity 72    
Maximum Humidity 85    
Minimum Humidity 61    
Precipitation  
Precipitation 0.00 in - - ()
Sea Level Pressure  
Sea Level Pressure 30.08 in    
Wind  
Wind Speed 15 mph (West)    
Max Wind Speed 30 mph    
Max Gust Speed 38 mph    
Visibility 10 miles    
Events Snow    
Averages and records for this station are not official NWS values.
T = Trace of Precipitation, MM = Missing Value Source: NWS Daily Summary

Daily Weather History Graph

Daily Weather History Graph

Search for Another Location

Airport or City:

Trip Planner

Search our weather history database for the weather conditions in past years. The results will help you decide how hot, cold, wet, or windy it might be!

Date:

Astronomy

Dec. 09, 2013 Rise Set
Actual Time 7:39 AM CST 4:47 PM CST
Civil Twilight 7:07 AM CST 5:19 PM CST
Nautical Twilight 6:32 AM CST 5:54 PM CST
Astronomical Twilight 5:57 AM CST 6:29 PM CST
Moon 12:25 PM CST (12/9) No Moon Set
Length of Visible Light 10h 11m
Length of Day
9h 08m
Waxing Crescent, 51% of the Moon is Illuminated
Dec 9
Waxing Crescent
Dec 17
Full
Dec 25
Last Quarter
Jan 1
New
Jan 7
First Quarter

Hourly Weather History & Observations

Time (CST) Temp. Windchill Dew Point Humidity Pressure Visibility Wind Dir Wind Speed Gust Speed Precip Events Conditions
12:15 AM 1.4 °F -15.3 °F -2.2 °F 85% 30.05 in 10.0 mi WNW 11.5 mph - N/A   Clear
12:35 AM -0.4 °F -17.6 °F -4.0 °F 85% 30.04 in 9.0 mi WNW 11.5 mph - N/A   Clear
12:55 AM 1.4 °F -15.3 °F -2.2 °F 85% 30.04 in 8.0 mi WNW 11.5 mph - N/A   Light Freezing Rain
1:15 AM -0.4 °F -15.7 °F -4.0 °F 85% 30.04 in 8.0 mi WNW 9.2 mph - N/A   Light Freezing Rain
1:35 AM -0.4 °F -16.7 °F -4.0 °F 85% 30.04 in 8.0 mi WNW 10.4 mph - N/A Snow Light Snow
1:55 AM -2.2 °F -18.9 °F -5.8 °F 85% 30.04 in 9.0 mi WNW 10.4 mph - N/A Snow Light Snow
2:15 AM 1.4 °F -16.9 °F -4.0 °F 78% 30.04 in 10.0 mi WNW 13.8 mph - N/A   Partly Cloudy
2:35 AM -0.4 °F -20.5 °F -4.0 °F 85% 30.05 in 8.0 mi WNW 16.1 mph - N/A   Partly Cloudy
2:55 AM -0.4 °F -19.2 °F -4.0 °F 85% 30.05 in 10.0 mi WNW 13.8 mph 20.7 mph N/A   Partly Cloudy
3:15 AM -0.4 °F -19.2 °F -5.8 °F 78% 30.06 in 10.0 mi WNW 13.8 mph - N/A Snow Light Snow
3:35 AM -2.2 °F -20.7 °F -7.6 °F 78% 30.06 in 10.0 mi West 12.7 mph 18.4 mph N/A   Mostly Cloudy
3:55 AM -2.2 °F -20.7 °F -7.6 °F 78% 30.05 in 10.0 mi WNW 12.7 mph - N/A   Overcast
4:15 AM -4.0 °F -22.1 °F -7.6 °F 85% 30.06 in 10.0 mi WNW 11.5 mph 19.6 mph N/A   Scattered Clouds
4:35 AM -4.0 °F -24.5 °F -9.4 °F 78% 30.06 in 10.0 mi WNW 15.0 mph - N/A   Clear
4:55 AM -4.0 °F -23.0 °F -9.4 °F 78% 30.06 in 10.0 mi WNW 12.7 mph 21.9 mph N/A   Clear
5:15 AM -4.0 °F -22.1 °F -11.2 °F 71% 30.08 in 10.0 mi WNW 11.5 mph 18.4 mph N/A   Clear
5:35 AM -4.0 °F -24.5 °F -9.4 °F 78% 30.08 in 10.0 mi WNW 15.0 mph 20.7 mph N/A   Clear
5:55 AM -5.8 °F -26.8 °F -11.2 °F 77% 30.10 in 10.0 mi WNW 15.0 mph - N/A   Clear
6:15 AM -5.8 °F -27.5 °F -11.2 °F 77% 30.11 in 10.0 mi WNW 16.1 mph - N/A   Clear
6:35 AM -5.8 °F -25.2 °F -11.2 °F 77% 30.12 in 10.0 mi WNW 12.7 mph - N/A   Clear
6:55 AM -5.8 °F -26.8 °F -13.0 °F 71% 30.13 in 10.0 mi West 15.0 mph - N/A   Clear
7:15 AM -5.8 °F -28.8 °F -13.0 °F 71% 30.13 in 10.0 mi WNW 18.4 mph - N/A   Clear
7:35 AM -7.6 °F -31.7 °F -13.0 °F 77% 30.14 in 10.0 mi WNW 19.6 mph - N/A   Clear
7:55 AM -7.6 °F -28.3 °F -14.8 °F 71% 30.15 in 10.0 mi WNW 13.8 mph - N/A   Clear
8:15 AM -7.6 °F -29.1 °F -14.8 °F 71% 30.16 in 10.0 mi West 15.0 mph - N/A   Clear
8:35 AM -7.6 °F -27.5 °F -13.0 °F 77% 30.17 in 10.0 mi West 12.7 mph - N/A   Clear
8:55 AM -5.8 °F -27.5 °F -13.0 °F 71% 30.17 in 10.0 mi West 16.1 mph - N/A   Clear
9:15 AM -5.8 °F -30.5 °F -13.0 °F 71% 30.16 in 10.0 mi WNW 21.9 mph - N/A   Clear
9:35 AM -4.0 °F -29.1 °F -11.2 °F 71% 30.16 in 5.0 mi WNW 24.2 mph 29.9 mph N/A Snow Light Snow
9:55 AM -2.2 °F -26.2 °F -11.2 °F 66% 30.17 in 7.0 mi WNW 23.0 mph - N/A Snow Light Snow
10:15 AM -2.2 °F -26.7 °F -9.4 °F 71% 30.17 in 7.0 mi WNW 24.2 mph - N/A Snow Light Snow
10:35 AM -2.2 °F -25.2 °F -9.4 °F 71% 30.17 in 9.0 mi WNW 20.7 mph 26.5 mph N/A   Clear
10:55 AM -0.4 °F -21.2 °F -9.4 °F 66% 30.19 in 10.0 mi WNW 17.3 mph 25.3 mph N/A   Clear
11:15 AM -0.4 °F -22.3 °F -9.4 °F 66% 30.18 in 10.0 mi West 19.6 mph - N/A   Clear
11:35 AM -0.4 °F -22.8 °F -9.4 °F 66% 30.18 in 10.0 mi West 20.7 mph - N/A   Clear
11:55 AM -0.4 °F -23.8 °F -9.4 °F 66% 30.17 in 9.0 mi West 23.0 mph - N/A Snow Light Snow
12:15 PM 1.4 °F -21.0 °F -7.6 °F 66% 30.16 in 10.0 mi West 21.9 mph - N/A   Clear
12:35 PM 1.4 °F -19.4 °F -7.6 °F 66% 30.16 in 10.0 mi West 18.4 mph 26.5 mph N/A Snow Light Snow
12:55 PM 1.4 °F -19.9 °F -7.6 °F 66% 30.15 in 10.0 mi West 19.6 mph 26.5 mph N/A   Clear
1:15 PM 3.2 °F -16.5 °F -7.6 °F 61% 30.16 in 10.0 mi West 17.3 mph - N/A   Clear
1:35 PM 3.2 °F -15.9 °F -5.8 °F 66% 30.15 in 10.0 mi West 16.1 mph 24.2 mph N/A   Clear
1:55 PM 3.2 °F -15.9 °F -5.8 °F 66% 30.16 in 10.0 mi West 16.1 mph 23.0 mph N/A   Clear
2:15 PM 5.0 °F -14.2 °F -5.8 °F 61% 30.15 in 10.0 mi West 17.3 mph 25.3 mph N/A   Clear
2:35 PM 3.2 °F -16.5 °F -5.8 °F 66% 30.14 in 10.0 mi West 17.3 mph - N/A   Clear
2:55 PM 5.0 °F -12.3 °F -5.8 °F 61% 30.13 in 10.0 mi WSW 13.8 mph - N/A   Clear
3:15 PM 5.0 °F -13.0 °F -5.8 °F 61% 30.12 in 10.0 mi West 15.0 mph 20.7 mph N/A   Clear
3:35 PM 3.2 °F -15.3 °F -4.0 °F 72% 30.12 in 10.0 mi SW 15.0 mph - N/A Snow Light Snow
3:55 PM 3.2 °F -13.9 °F -5.8 °F 66% 30.11 in 10.0 mi SW 12.7 mph - N/A   Clear
4:15 PM 3.2 °F -13.9 °F -5.8 °F 66% 30.11 in 10.0 mi SW 12.7 mph - N/A   Clear
4:35 PM 3.2 °F -13.9 °F -5.8 °F 66% 30.10 in 10.0 mi SW 12.7 mph - N/A   Clear
4:55 PM 1.4 °F -16.1 °F -5.8 °F 72% 30.10 in 10.0 mi SW 12.7 mph - N/A   Clear
5:15 PM 1.4 °F -14.5 °F -7.6 °F 66% 30.10 in 10.0 mi SW 10.4 mph - N/A   Clear
5:35 PM -0.4 °F -17.6 °F -7.6 °F 72% 30.10 in 10.0 mi SW 11.5 mph - N/A   Clear
5:55 PM -0.4 °F -19.2 °F -7.6 °F 72% 30.09 in 10.0 mi SW 13.8 mph - N/A   Clear
6:15 PM -0.4 °F -17.6 °F -7.6 °F 72% 30.09 in 10.0 mi SSW 11.5 mph - N/A   Clear
6:35 PM -0.4 °F -19.9 °F -7.6 °F 72% 30.07 in 10.0 mi SSW 15.0 mph - N/A Snow Light Snow
6:55 PM -0.4 °F -19.2 °F -7.6 °F 72% 30.06 in 10.0 mi SSW 13.8 mph - N/A   Clear
7:15 PM 1.4 °F -17.6 °F -5.8 °F 72% 30.06 in 10.0 mi SSW 15.0 mph - N/A   Clear
7:35 PM 1.4 °F -18.2 °F -5.8 °F 72% 30.03 in 10.0 mi South 16.1 mph - N/A Snow Light Snow
7:55 PM 1.4 °F -17.6 °F -5.8 °F 72% 30.02 in 10.0 mi South 15.0 mph 21.9 mph N/A   Clear
8:15 PM 3.2 °F -17.1 °F -4.0 °F 72% 30.00 in 10.0 mi SSW 18.4 mph - N/A Snow Light Snow
8:35 PM 3.2 °F -17.6 °F -4.0 °F 72% 30.00 in 10.0 mi SSW 19.6 mph 25.3 mph N/A Snow Light Snow
8:55 PM 5.0 °F -15.7 °F -2.2 °F 72% 29.98 in 10.0 mi SSW 20.7 mph 27.6 mph N/A Snow Light Snow
9:15 PM 5.0 °F -15.7 °F -2.2 °F 72% 29.97 in 10.0 mi SSW 20.7 mph 28.8 mph N/A Snow Light Snow
9:35 PM 6.8 °F -14.3 °F -2.2 °F 67% 29.95 in 10.0 mi SW 23.0 mph 28.8 mph N/A   Overcast
9:55 PM 6.8 °F -14.7 °F -0.4 °F 72% 29.94 in 10.0 mi SW 24.2 mph - N/A   Overcast
10:15 PM 8.6 °F -11.9 °F 1.4 °F 73% 29.92 in 10.0 mi SW 23.0 mph 35.7 mph N/A   Overcast
10:35 PM 8.6 °F -11.9 °F 1.4 °F 73% 29.91 in 10.0 mi SW 23.0 mph 29.9 mph N/A   Overcast
10:55 PM 8.6 °F -11.4 °F 1.4 °F 73% 29.90 in 10.0 mi SW 21.9 mph 29.9 mph N/A   Mostly Cloudy
11:15 PM 10.4 °F -10.7 °F 3.2 °F 73% 29.90 in 10.0 mi SW 26.5 mph 34.5 mph N/A   Mostly Cloudy
11:35 PM 12.2 °F -8.6 °F 3.2 °F 67% 29.89 in 10.0 mi SW 27.6 mph 35.7 mph N/A   Overcast
11:55 PM 12.2 °F -9.3 °F 5.0 °F 73% 29.88 in 10.0 mi SW 29.9 mph 38.0 mph N/A   Overcast